Location: Unspecified
(38.9820°N, 94.4650°W)
Time: 00:01:39
(UTC-05:00)

Hubble Space Telescope - Visible Passes

Search period start: 21 April 2015 00:00
Search period end: 01 May 2015 00:00
Orbit: 543 x 546 km, 28.5° (Epoch: 20 April)

Date Brightness Start Highest point End Pass type
(mag) Time Alt. Az. Time Alt. Az. Time Alt. Az.
21 Apr 2.5 05:26:23 16° SSW 05:27:40 18° S 05:30:29 10° SE visible
22 Apr 2.5 05:18:25 16° SSW 05:19:03 16° S 05:21:40 10° SSE visible
23 Apr 2.7 05:10:32 15° S 05:10:32 15° S 05:12:45 10° SSE visible
24 Apr 3.0 05:02:46 12° S 05:02:46 12° S 05:03:40 10° SSE visible
30 Apr 3.0 21:17:38 10° S 21:18:08 10° SSE 21:18:08 10° SSE visible
